This is the latest recevied weather packets stored in our database for station/object KK4PWJ-13. If no packets are shown the sender has not sent any weather packets the latest 1 day(s).
| Time | Temp. | Humidity | Pressure | Rain* | Wind** | Luminosity | Snow |
|---|---|---|---|---|---|---|---|
| 1778080195 | 18.89° C | 75% | 1012.5 hPa | 0 mm | - | 102 W/m² | - |
| 1778079588 | 18.89° C | 74% | 1012.3 hPa | 0 mm | - | 60 W/m² | - |
| 1778079284 | 18.89° C | 76% | 1012.3 hPa | 0 mm | - | 68 W/m² | - |
| 1778078982 | 18.89° C | 75% | 1012.4 hPa | 0 mm | - | 86 W/m² | - |
| 1778078678 | 18.89° C | 73% | 1012.2 hPa | 0 mm | - | 83 W/m² | - |
| 1778078377 | 18.89° C | 73% | 1012.2 hPa | 0 mm | - | 76 W/m² | - |
| 1778077772 | 18.89° C | 74% | 1011.9 hPa | 0 mm | - | 100 W/m² | - |
| 1778077167 | 18.89° C | 74% | 1011.7 hPa | 0 mm | - | 110 W/m² | - |
| 1778076865 | 18.89° C | 74% | 1011.6 hPa | 0 mm | - | 91 W/m² | - |
| 1778075654 | 18.33° C | 74% | 1012 hPa | 0 mm | - | 98 W/m² | - |
| 1778074136 | 17.78° C | 74% | 1012.4 hPa | 0 mm | - | 86 W/m² | - |
| 1778073532 | 17.78° C | 74% | 1012.5 hPa | 0 mm | - | 73 W/m² | - |
| 1778071412 | 17.22° C | 77% | 1012.3 hPa | 0 mm | - | 29 W/m² | - |
| 1778070808 | 17.22° C | 76% | 1012.6 hPa | 0 mm | - | 23 W/m² | - |
| 1778070505 | 17.22° C | 76% | 1012.3 hPa | 0 mm | - | 28 W/m² | - |
| 1778069900 | 17.22° C | 76% | 1012.1 hPa | 0 mm | - | 39 W/m² | - |
| 1778069294 | 17.22° C | 76% | 1012.2 hPa | 0 mm | - | 43 W/m² | - |
| 1778068689 | 17.22° C | 76% | 1012.1 hPa | 0 mm | - | 28 W/m² | - |
| 1778068387 | 17.22° C | 76% | 1012.1 hPa | 0 mm | - | 43 W/m² | - |
| 1778067178 | 17.22° C | 76% | 1011.7 hPa | 0 mm | - | 23 W/m² | - |
| 1778065967 | 16.67° C | 76% | 1011.6 hPa | 0 mm | - | 16 W/m² | - |
| 1778065057 | 16.67° C | 76% | 1012 hPa | 0 mm | - | 11 W/m² | - |
| 1778062636 | 16.67° C | 77% | 1011.4 hPa | 0 mm | - | 1 W/m² | - |
| 1778062031 | 16.67° C | 76% | 1011.4 hPa | 0 mm | - | 0 W/m² | - |
| 1778061427 | 16.67° C | 76% | 1011.6 hPa | 0 mm | - | 0 W/m² | - |
* Rain latest hour (hover to see other rain measurements)
** Current wind speed in m/s (hover to see current wind gust speed)